Terug naar catalogus

SL-12 DEB

ActiefHEO
NORAD 34667·DEBRIS·🇷🇺 Russia

Gelanceerd Apr 4, 1991 vanaf Baikonur Cosmodrome

Loading…

Volgende Passages (komende 24 uur)

TLE

VersSource: Space-Track

Epoch: Sep 12, 2026, 10:46 UTC

1 34667U 91025L   26255.44862814 -.00000960  00000-0 -85369-2 0  9990
2 34667  65.4437  56.3647 5462468 344.5166  11.8743  4.44299396277608

Volg SL-12 DEB in realtime met AllMySat

Download on the App Store